RH
95 92 84 78 77 78 80 80 82 84 84 80 78 78 78 76 74 74 73 77 76 73 71 69 69 68 68 68 70 72 71 73 73 76 79 76 73 69 67 77 82 76 76
88 84 86 81 78 79 80 81 84 85 85 83 80 78 77 75 72 72 70 72 70 69 67 68 69 70 68 69 72 74 74 77 81 85 86 85 82 71 68 76 83 77 79
83 80 80 87 86 82 81 82 85 84 84 84 79 75 78 76 72 72 71 71 70 69 69 72 74 71 71 73 76 75 73 75 82 82 83 83 82 75 70 76 81 78 79
75 78 82 88 86 83 82 81 83 84 84 84 82 78 77 76 74 73 72 73 75 75 77 77 77 78 80 80 78 77 75 77 82 82 78 73 69 72 70 71 72 74 75
73 77 82 87 86 84 83 84 83 82 82 83 83 82 79 79 74 74 74 79 82 83 82 80 81 82 83 82 78 77 76 78 78 73 75 72 84 71 68 69 70 71 74
90 92 88 86 84 85 85 85 83 80 80 81 82 82 81 78 78 77 80 82 82 86 84 81 81 83 84 82 81 80 78 80 82 80 90 85 91 72 72 76 76 76 77
80 85 85 84 81 86 84 84 84 82 80 81 81 78 76 76 77 79 80 83 83 84 83 81 80 80 82 82 80 82 84 85 87 77 93 91 88 78 78 78 78 78 80
56 56 55 81 86 87 87 85 84 82 81 83 82 81 81 80 80 80 80 82 84 83 82 81 81 81 80 80 79 81 87 87 75 80 92 91 84 73 75 80 78 76 77
36 43 46 53 69 86 87 87 87 86 86 85 86 84 85 86 84 83 82 82 82 83 82 83 84 81 80 79 82 86 87 89 88 90 90 90 82 72 74 76 75 74 71
37 37 39 50 48 59 72 75 76 80 85 87 88 88 89 90 89 86 85 84 83 84 85 85 86 85 85 86 89 90 90 91 92 93 94 88 81 72 72 73 73 68 69
41 38 39 41 42 49 63 68 71 72 77 84 91 92 92 90 86 87 90 87 86 86 87 87 88 88 90 91 91 91 91 97 94 92 96 85 80 72 70 70 72 71 70
57 48 46 44 47 48 42 61 56 58 77 80 88 93 95 92 86 80 89 90 88 88 89 88 90 91 94 98 98 93 98 96 94 88 79 84 78 71 68 68 72 71 70
60 60 54 51 53 54 55 62 64 64 70 61 65 87 92 83 90 91 96 95 95 93 94 91 95 98 98 97 98 98 96 95 88 90 78 84 79 73 70 69 70 69 68
63 55 56 54 54 60 69 68 64 63 61 64 57 56 66 86 85 92 94 94 94 98 97 98 98 98 98 90 87 88 89 90 84 75 84 87 83 76 75 73 72 69 69
54 54 58 60 62 61 66 74 72 68 68 64 63 59 66 83 92 94 95 95 96 97 98 98 96 94 98 94 80 76 74 74 76 72 84 89 87 82 77 73 74 70 71
49 56 62 65 65 66 73 74 76 77 72 71 73 71 63 73 86 93 95 96 97 98 98 98 96 86 90 91 86 76 66 62 60 78 92 87 88 86 84 78 74 74 72
51 56 64 68 69 69 73 75 81 81 76 80 78 71 67 68 75 86 95 96 96 95 96 97 98 96 91 91 91 78 68 61 56 67 84 88 90 90 88 81 78 76 72
56 54 59 62 72 70 76 81 81 83 86 84 83 81 71 72 77 84 91 94 94 96 96 97 99 98 97 95 96 93 83 76 72 58 75 80 84 83 90 89 86 81 78
56 57 66 71 74 75 78 87 88 84 90 89 89 87 77 74 78 84 89 92 90 95 96 97 97 97 97 97 89 93 91 83 82 80 75 75 80 85 94 92 89 87 86
58 61 70 74 73 77 85 90 93 92 93 93 92 89 80 79 80 87 90 91 93 95 98 97 98 99 98 98 96 97 96 91 89 80 75 70 73 81 88 92 95 93 89
61 65 75 79 80 84 92 93 95 95 94 94 93 84 82 82 79 87 91 91 93 94 93 96 96 96 99 99 99 99 99 98 95 94 92 76 71 79 88 94 94 97 90
58 64 82 78 78 81 88 92 93 95 95 94 93 90 85 83 82 82 87 90 92 94 92 92 96 98 98 99 99 98 99 99 99 96 94 86 76 83 86 88 90 94 95
68 72 73 74 75 80 86 91 94 94 95 95 95 95 91 86 87 86 84 88 89 91 94 93 92 93 97 97 96 94 99 98 99 99 97 94 86 90 95 90 90 90 93
78 76 81 77 75 76 88 92 91 95 96 96 95 94 94 87 87 89 90 90 91 93 93 94 88 94 96 98 94 98 94 93 98 99 99 98 96 93 96 97 92 90 92
65 69 77 83 82 83 91 91 92 87 96 95 95 93 94 92 90 89 89 91 93 94 93 94 94 94 96 96 98 99 97 98 97 97 99 99 99 97 95 93 90 89 87
64 71 74 78 82 81 87 87 87 86 83 82 92 96 87 84 87 84 85 91 92 93 91 92 94 95 96 97 96 96 96 97 96 96 98 94 93 96 95 97 95 89 86
Wind_Speed
2 6 11 10 9 10 10 10 10 9 9 10 11 11 10 10 10 10 10 11 10 11 11 12 12 13 13 14 14 14 15 15 15 15 12 11 12 14 14 12 11 11 18
10 7 11 10 10 10 11 10 8 9 8 8 9 10 10 9 10 10 9 10 10 10 11 11 11 13 13 13 13 12 13 14 14 13 12 10 9 9 13 11 12 13 17
11 9 9 9 9 9 9 10 9 8 8 7 8 8 9 10 8 9 9 8 9 10 10 9 11 13 12 12 11 10 10 11 10 11 11 5 5 15 14 11 11 16 17
13 9 7 9 8 9 8 9 8 8 7 8 7 6 7 10 9 8 8 8 6 8 11 11 10 13 12 10 9 8 8 7 7 8 4 4 6 12 14 13 12 13 16
11 9 8 9 8 7 7 7 7 7 6 6 6 6 6 8 9 9 7 6 6 10 10 11 11 11 11 9 7 7 5 5 4 3 3 3 5 8 12 13 13 14 14
7 8 9 8 7 7 7 6 6 6 6 5 6 7 6 7 8 7 7 6 7 9 10 11 11 11 10 9 7 4 3 3 3 4 7 7 5 9 11 13 11 14 14
7 7 7 9 8 7 6 6 5 4 4 5 5 6 6 6 7 7 7 7 7 9 10 11 10 10 10 8 7 5 3 1 2 5 5 6 6 12 15 15 13 15 15
10 7 7 9 9 7 6 5 5 4 4 4 4 5 7 6 6 6 7 8 9 9 9 10 10 9 9 9 8 5 3 3 4 2 4 5 11 11 12 12 13 12 14
8 7 6 6 8 9 9 7 5 3 2 4 5 5 6 7 7 8 7 8 8 9 9 9 10 10 9 8 7 6 4 0 2 1 4 4 9 11 10 11 12 10 10
5 5 6 5 5 5 5 9 8 5 4 4 5 6 7 7 6 8 9 9 9 10 10 10 10 10 9 7 7 7 4 1 1 3 3 3 10 11 9 10 11 9 9
1 3 3 3 4 5 6 6 7 7 6 6 6 7 6 4 5 6 6 9 10 11 11 11 11 11 10 9 7 6 4 2 3 3 3 7 10 11 10 8 10 10 9
4 4 5 4 3 3 4 4 3 4 4 4 5 5 4 5 5 6 7 10 11 11 11 12 11 10 8 4 3 5 2 3 4 4 4 11 8 10 9 9 11 11 11
7 4 6 5 4 3 2 2 1 1 2 3 5 6 5 4 4 4 3 4 4 8 4 6 6 4 6 4 4 4 4 4 3 3 6 15 14 11 10 9 9 11 11
7 8 6 6 5 4 2 2 2 1 1 1 2 4 3 2 3 3 4 5 5 4 5 5 3 4 6 6 6 6 6 4 4 3 5 13 12 14 14 12 10 10 11
7 7 8 7 5 5 4 3 2 2 2 2 1 2 3 1 3 2 2 2 3 4 4 5 5 6 6 7 6 7 7 7 6 3 4 13 14 12 13 13 12 12 12
8 8 7 7 7 6 4 4 3 2 3 1 1 2 2 3 1 2 2 3 3 4 4 5 6 6 6 6 7 6 6 7 6 6 4 7 12 12 10 12 13 14 15
8 8 9 8 8 7 6 5 3 3 3 2 2 3 3 3 3 2 2 2 3 2 5 5 5 4 4 5 7 5 5 6 5 7 6 5 6 10 10 11 12 15 16
7 9 8 6 8 7 6 4 4 3 3 3 3 3 4 5 5 4 2 2 1 1 1 2 3 5 5 5 4 5 4 3 3 4 5 6 6 5 7 10 10 14 16
11 9 8 8 8 7 5 4 4 3 3 3 3 3 4 4 5 4 3 3 2 2 2 2 2 3 6 5 7 6 5 4 4 3 3 5 8 7 5 8 9 10 11
9 9 9 7 8 7 4 3 1 2 2 3 3 4 4 3 5 4 3 3 3 1 2 2 3 3 3 4 4 3 4 4 4 4 4 6 8 8 8 7 5 5 10
5 7 8 8 7 4 2 2 1 3 2 2 3 4 4 3 4 5 4 4 4 4 4 4 2 4 3 3 2 2 2 3 4 3 3 5 9 8 7 5 5 4 3
3 2 4 5 6 4 3 2 2 3 3 2 2 3 3 4 4 4 4 4 5 3 4 4 4 2 3 4 2 2 2 2 3 4 4 4 5 4 7 8 7 6 5
13 8 2 3 5 3 5 2 2 2 2 0 2 3 4 4 4 5 5 4 4 2 4 4 4 5 3 3 5 3 2 3 2 2 7 3 5 4 5 8 9 7 6
23 25 13 5 2 2 5 3 3 2 3 3 3 3 4 6 6 6 6 5 4 2 2 3 3 4 3 5 4 3 2 1 3 1 2 3 5 5 6 6 8 9 8
23 23 21 26 11 3 4 4 3 4 3 3 3 5 6 5 6 6 7 6 5 4 4 4 4 4 4 3 3 2 4 2 1 2 3 5 2 4 6 8 8 8 10
22 23 22 25 21 21 4 6 6 8 7 6 5 4 3 2 3 6 7 6 6 5 5 4 5 4 4 5 4 5 5 4 5 3 3 6 11 5 6 5 7 8 8
Wind_Direction
147 142 124 123 116 97 101 123 133 133 136 132 128 122 119 114 110 111 112 114 107 111 111 106 103 101 102 101 99 100 101 98 97 93 90 97 101 101 105 90 82 107 107
141 139 128 124 120 112 103 100 120 131 140 140 139 136 133 125 122 119 118 123 119 116 123 116 116 111 107 106 102 100 106 110 106 102 94 83 81 108 103 93 93 106 105
133 137 130 124 119 111 109 103 100 124 141 145 148 154 155 138 134 129 129 131 130 126 135 124 117 110 112 111 110 112 116 120 121 122 115 102 82 107 114 106 99 102 102
132 128 126 126 123 121 119 113 108 104 131 147 160 167 158 149 148 142 140 135 132 137 126 126 117 115 115 113 118 128 127 121 129 126 100 125 111 115 122 123 116 108 104
111 117 119 127 130 130 132 129 126 122 120 130 156 162 159 160 162 157 155 135 124 125 125 134 130 124 121 118 127 150 145 144 126 176 217 148 131 142 140 133 127 120 118
113 119 116 115 120 127 127 134 141 140 141 142 145 165 168 177 180 176 169 159 149 126 138 143 140 134 133 133 136 154 198 167 66 334 114 147 135 163 168 139 129 137 133
126 123 116 121 147 135 129 133 136 149 155 155 160 165 172 186 194 195 188 176 157 149 151 155 150 145 145 148 152 158 256 304 31 11 115 108 114 111 126 131 128 132 123
140 142 129 129 129 141 138 134 139 146 162 174 180 187 188 189 190 196 199 189 170 163 163 169 160 159 159 160 163 171 231 342 4 333 131 113 127 119 118 113 105 106 114
130 129 136 146 150 151 152 148 146 145 157 189 201 207 204 193 200 201 196 191 181 174 179 176 165 167 170 168 164 169 219 356 343 152 131 128 139 128 121 112 112 118 115
105 111 143 175 164 161 158 156 154 167 188 214 217 213 212 211 208 202 196 197 183 182 182 173 171 171 174 170 168 176 202 146 325 136 124 148 145 140 142 142 139 141 138
111 147 154 148 150 167 171 180 166 175 193 206 218 216 211 206 216 205 195 195 192 185 185 181 179 176 180 179 180 187 200 165 162 153 158 165 159 154 151 166 157 157 164
223 235 215 190 180 146 155 182 187 186 200 198 209 218 206 203 205 199 198 197 193 189 186 188 185 184 176 177 182 190 210 204 192 188 162 169 186 164 166 179 170 174 178
214 231 210 200 191 179 195 159 165 148 234 221 206 209 208 214 215 204 197 197 189 189 183 191 185 180 179 174 187 196 216 202 225 209 187 175 181 180 175 180 189 184 181
207 210 191 194 181 189 186 193 210 190 175 215 263 189 154 210 219 189 186 190 184 170 177 177 179 181 190 195 192 200 216 212 204 212 205 176 183 182 182 185 194 198 186
214 217 200 185 194 201 197 199 223 224 183 216 242 293 89 174 117 127 117 155 191 160 182 185 182 191 197 208 213 201 217 227 213 204 188 194 172 187 187 191 196 198 193
219 223 211 194 190 186 196 205 217 221 246 228 227 238 186 131 158 180 157 192 214 200 196 190 190 192 199 201 217 211 220 232 223 181 178 183 175 179 190 202 206 200 198
210 198 194 191 187 185 195 199 211 228 216 227 235 234 222 162 137 166 213 210 219 229 200 194 197 191 186 198 214 209 213 231 229 175 185 170 179 179 185 201 216 208 205
203 198 198 181 179 182 190 199 199 214 230 225 234 246 224 189 163 133 133 200 247 333 255 189 183 197 211 199 207 223 204 157 112 101 205 170 174 179 190 204 218 220 212
196 190 191 182 177 184 189 194 202 214 212 228 240 231 223 205 172 153 157 205 219 251 269 259 217 184 208 208 212 206 215 206 215 137 138 221 181 180 181 192 204 210 217
195 185 167 167 170 175 171 171 212 233 250 235 237 228 205 182 171 162 177 198 174 166 229 247 235 197 182 208 224 217 235 181 172 181 185 206 202 185 183 180 184 213 213
183 162 171 158 177 141 137 150 230 228 232 255 243 239 209 192 184 178 190 199 199 192 207 212 222 216 246 178 162 220 269 266 220 193 192 187 219 181 172 179 178 185 210
63 104 142 160 160 165 149 180 172 190 229 207 215 254 231 207 199 177 185 202 210 210 224 223 203 195 219 189 175 124 211 259 225 222 210 205 212 191 176 175 180 178 175
7 0 41 201 186 176 182 128 74 36 14 332 266 248 232 208 225 223 206 200 216 204 225 227 221 201 209 238 210 158 165 224 153 210 211 218 206 185 183 178 179 180 176
6 357 354 7 334 245 186 162 172 193 221 237 250 244 231 217 212 212 207 195 199 199 264 256 230 222 179 213 236 201 151 217 191 198 272 206 215 199 182 179 181 179 173
10 1 357 358 330 329 179 181 188 264 248 266 272 276 249 225 208 204 190 192 202 204 226 249 289 258 223 195 190 173 207 168 119 163 200 189 202 220 206 189 188 186 186
8 6 357 354 348 350 271 203 206 205 227 252 275 280 277 241 213 213 203 196 197 200 206 226 244 254 264 252 223 206 194 193 201 159 231 210 204 206 200 191 197 188 188